WB8HRV Weather Reports


time (UTC)temp
C
wind
direction
speed
KPH
gust
KPH
rain 1hr
cm
rain 24hr
cm
rain mn
cm
humidity
%
barometer
mb
20260509012947 17 213 1.6 9.7 0.00 0.00 0.00 57 1009.5
20260509012426 18 180 1.6 16.1 0.00 0.00 0.00 55 1009.4
20260509010943 18 250 1.6 17.7 0.00 0.00 0.00 53 1009.3
20260509005942 18 251 1.6 16.1 0.00 0.00 0.00 52 1009.3
20260509004941 19 159 1.6 8.0 0.00 0.00 0.00 50 1009.0
20260509003943 19 205 1.6 8.0 0.00 0.00 0.00 48 1008.6
20260509002944 19 201 1.6 6.4 0.00 0.00 0.00 48 1008.6
20260509001942 19 222 1.6 14.5 0.00 0.00 0.00 48 1008.6
20260509000942 19 254 0.0 9.7 0.00 0.00 0.00 48 1008.7
20260508235942 19 171 1.6 6.4 0.00 0.00 0.00 48 1008.7
20260508234943 19 221 1.6 8.0 0.00 0.00 0.00 48 1008.6
20260508233938 19 213 1.6 9.7 0.00 0.00 0.00 49 1008.6
20260508232938 19 165 1.6 12.9 0.00 0.00 0.00 49 1008.7
20260508231940 20 125 1.6 11.3 0.00 0.00 0.00 51 1008.8
20260508231413 20 218 1.6 11.3 0.00 0.00 0.00 47 1008.7
20260508225940 20 214 1.6 8.0 0.00 0.00 0.00 46 1008.6
20260508224935 20 159 1.6 14.5 0.00 0.00 0.00 45 1008.6
20260508223942 20 211 1.6 11.3 0.00 0.00 0.00 45 1008.6
20260508222937 20 142 1.6 8.0 0.00 0.00 0.00 45 1008.4
20260508221936 20 160 1.6 14.5 0.00 0.00 0.00 45 1008.5
20260508220935 20 121 3.2 14.5 0.00 0.00 0.00 44 1008.4
20260508215938 20 226 3.2 9.7 0.00 0.00 0.00 44 1008.3
20260508214935 20 205 1.6 9.7 0.00 0.00 0.00 43 1008.4
20260508213936 20 200 1.6 12.9 0.00 0.00 0.00 43 1008.5
20260508212934 20 238 1.6 12.9 0.00 0.00 0.00 43 1008.6
20260508211934 20 161 3.2 19.3 0.00 0.00 0.00 43 1008.7
20260508210934 21 240 3.2 14.5 0.00 0.00 0.00 41 1008.8
20260508205933 20 194 3.2 17.7 0.00 0.00 0.00 43 1009.0
20260508204934 20 249 1.6 14.5 0.00 0.00 0.00 43 1009.4
20260508204411 20 217 1.6 14.5 0.00 0.00 0.00 44 1009.4
20260508203854 20 247 1.6 17.7 0.00 0.00 0.00 43 1009.5
20260508201931 20 248 3.2 16.1 0.00 0.00 0.00 43 1009.6
20260508201425 20 169 1.6 17.7 0.00 0.00 0.00 43 1009.6
20260508195932 20 215 3.2 12.9 0.00 0.00 0.00 42 1009.7
20260508194931 20 225 3.2 17.7 0.00 0.00 0.00 43 1009.7
20260508194429 20 248 3.2 16.1 0.00 0.00 0.00 42 1009.8
20260508193409 20 214 3.2 12.9 0.00 0.00 0.00 43 1009.9
20260508191931 20 186 1.6 17.7 0.00 0.00 0.00 41 1010.0
20260508190932 20 244 3.2 19.3 0.00 0.00 0.00 40 1010.2
20260508185930 21 231 1.6 17.7 0.00 0.00 0.00 41 1010.4
20260508184928 21 134 3.2 16.1 0.00 0.00 0.00 41 1010.6
20260508183927 20 215 4.8 19.3 0.00 0.00 0.00 39 1010.9
20260508182928 21 241 3.2 30.6 0.00 0.00 0.00 42 1010.9
20260508181927 20 208 3.2 20.9 0.00 0.00 0.00 41 1011.1
20260508180927 20 277 3.2 22.5 0.00 0.00 0.00 42 1011.2
20260508175928 20 246 4.8 29.0 0.00 0.00 0.00 42 1011.2
20260508175407 20 243 3.2 19.3 0.00 0.00 0.00 43 1011.4
20260508173927 20 234 3.2 17.7 0.00 0.00 0.00 42 1011.5
20260508172928 19 232 4.8 17.7 0.00 0.00 0.00 41 1011.8
20260508171928 19 199 3.2 14.5 0.00 0.00 0.00 43 1012.0
20260508171404 20 208 3.2 24.1 0.00 0.00 0.00 44 1012.1
20260508165926 19 238 4.8 25.7 0.00 0.00 0.00 45 1012.3
20260508164926 19 213 3.2 20.9 0.00 0.00 0.00 46 1012.6
20260508164406 19 186 4.8 22.5 0.00 0.00 0.00 46 1012.7
20260508162927 19 134 3.2 22.5 0.00 0.00 0.00 45 1012.9
20260508161929 18 238 3.2 16.1 0.00 0.00 0.00 48 1012.9
20260508160930 18 149 3.2 20.9 0.00 0.00 0.00 48 1013.1
20260508155924 18 202 3.2 12.9 0.00 0.00 0.00 47 1013.1
20260508154927 18 250 6.4 22.5 0.00 0.00 0.00 48 1013.3
20260508153924 18 203 3.2 16.1 0.00 0.00 0.00 49 1013.3
20260508152926 17 159 4.8 25.7 0.00 0.00 0.00 49 1013.7
20260508151926 17 149 4.8 20.9 0.00 0.00 0.00 50 1013.7
20260508150925 17 279 3.2 24.1 0.00 0.00 0.00 50 1013.9
20260508145924 17 208 4.8 19.3 0.00 0.00 0.00 50 1013.9
20260508144926 16 175 4.8 17.7 0.00 0.00 0.00 50 1013.9
20260508143922 16 232 4.8 20.9 0.00 0.00 0.00 50 1014.0
20260508143322 16 209 3.2 19.3 0.00 0.00 0.00 50 1014.2
20260508142954 16 190 1.6 16.1 0.00 0.00 0.00 51 1014.1
20260508141406 15 264 3.2 12.9 0.00 0.00 0.00 52 1014.3
20260508135923 15 252 3.2 14.5 0.00 0.00 0.00 52 1014.4
20260508134922 15 193 3.2 16.1 0.00 0.00 0.00 52 1014.4
20260508133922 14 199 3.2 14.5 0.00 0.00 0.00 54 1014.4
20260508132922 13 197 3.2 12.9 0.00 0.00 0.00 57 1014.4
20260508131925 13 150 1.6 8.0 0.00 0.00 0.00 60 1014.4
20260508130923 12 205 1.6 12.9 0.00 0.00 0.00 61 1014.4
20260508125922 12 186 1.6 4.8 0.00 0.00 0.00 64 1014.3
20260508125414 11 182 1.6 11.3 0.00 0.00 0.00 64 1014.2
20260508123922 11 207 0.0 11.3 0.00 0.00 0.00 66 1014.3
20260508123404 10 181 1.6 6.4 0.00 0.00 0.00 68 1014.2
20260508121924 10 140 0.0 3.2 0.00 0.00 0.00 71 1014.2
20260508121849 9 140 0.0 4.8 0.00 0.00 0.00 70 1014.2
20260508115922 10 159 1.6 8.0 0.00 0.00 0.00 69 1014.2
20260508115406 10 172 0.0 3.2 0.00 0.00 0.00 70 1014.1
20260508113922 9 173 0.0 4.8 0.00 0.00 0.00 70 1014.0
20260508113413 9 180 0.0 1.6 0.00 0.00 0.00 71 1013.9
20260508111919 8 171 0.0 4.8 0.00 0.00 0.00 72 1013.7
20260508110920 8 217 0.0 1.6 0.00 0.00 0.00 73 1013.7
20260508105919 8 221 0.0 0.0 0.00 0.00 0.00 72 1013.6
20260508104921 8 221 0.0 3.2 0.00 0.00 0.00 73 1013.6
20260508104855 8 231 0.0 0.0 0.00 0.00 0.00 73 1013.6
20260508102920 8 231 0.0 3.2 0.00 0.00 0.00 73 1013.5
20260508102838 8 233 0.0 4.8 0.00 0.00 0.00 75 1013.5
20260508100920 8 235 0.0 3.2 0.00 0.00 0.00 77 1013.5
20260508095918 7 241 0.0 0.0 0.00 0.00 0.00 78 1013.5
20260508094917 7 241 0.0 0.0 0.00 0.00 0.00 79 1013.5
20260508093916 7 241 0.0 0.0 0.00 0.00 0.00 79 1013.5
20260508092917 7 241 0.0 0.0 0.00 0.00 0.00 79 1013.5
20260508091917 6 241 0.0 0.0 0.00 0.00 0.00 80 1013.4
20260508090915 6 241 0.0 0.0 0.00 0.00 0.00 80 1013.6
20260508085917 6 241 0.0 0.0 0.00 0.00 0.00 78 1013.6
20260508084912 6 241 0.0 0.0 0.00 0.00 0.00 78 1013.5
20260508083911 6 241 0.0 0.0 0.00 0.00 0.00 78 1013.4
20260508082910 6 241 0.0 0.0 0.00 0.00 0.00 78 1013.4
20260508081908 6 241 0.0 0.0 0.00 0.00 0.00 77 1013.4
20260508080908 7 241 0.0 0.0 0.00 0.00 0.00 77 1013.2
20260508075909 6 241 0.0 0.0 0.00 0.00 0.00 77 1013.2
20260508074912 7 241 0.0 0.0 0.00 0.00 0.00 76 1013.4
20260508073909 7 241 0.0 0.0 0.00 0.00 0.00 76 1013.2
20260508072908 7 241 0.0 0.0 0.00 0.00 0.00 76 1013.3
20260508072808 7 241 0.0 0.0 0.00 0.00 0.00 74 1013.3
20260508072444 7 241 0.0 0.0 0.00 0.00 0.00 75 1013.3
20260508065906 7 241 0.0 0.0 0.00 0.00 0.00 74 1013.4
20260508064905 7 241 0.0 0.0 0.00 0.00 0.00 74 1013.3
20260508064342 7 241 0.0 0.0 0.00 0.00 0.00 74 1013.9
20260508062904 7 241 0.0 0.0 0.00 0.00 0.00 74 1014.0
20260508061902 7 241 0.0 0.0 0.00 0.00 0.00 74 1014.0
20260508060901 7 241 0.0 1.6 0.00 0.00 0.00 73 1014.1
20260508060342 7 241 0.0 1.6 0.00 0.00 0.00 74 1014.1
20260508054900 7 241 0.0 0.0 0.00 0.00 0.00 73 1014.1
20260508053900 7 241 0.0 0.0 0.00 0.00 0.00 72 1014.2
20260508052859 8 241 0.0 1.6 0.00 0.00 0.00 72 1014.1
20260508051858 8 241 0.0 0.0 0.00 0.00 0.00 71 1014.1
20260508050859 8 241 0.0 1.6 0.00 0.00 0.00 70 1014.0
20260508045859 8 241 0.0 3.2 0.00 0.00 0.00 70 1014.0
20260508044857 8 241 0.0 1.6 0.00 0.00 0.00 69 1014.1
20260508043855 8 241 0.0 3.2 0.00 0.00 0.00 68 1014.0
20260508042856 8 243 0.0 0.0 0.00 0.00 0.00 68 1014.0
20260508042259 9 243 0.0 1.6 0.00 0.00 0.00 64 1013.9
20260508041926 9 243 0.0 0.0 0.00 0.00 0.00 66 1014.1
20260508035853 9 244 0.0 3.2 0.00 0.00 0.00 66 1014.2
20260508034852 9 244 1.6 3.2 0.00 0.00 0.00 67 1013.9
20260508033852 8 250 0.0 0.0 0.00 0.00 0.00 69 1014.0
20260508032853 8 250 0.0 0.0 0.00 0.00 0.00 69 1014.1
20260508031852 8 250 0.0 0.0 0.00 0.00 0.00 69 1014.1
20260508030852 9 250 0.0 0.0 0.00 0.00 0.00 68 1014.0
20260508025852 9 250 0.0 0.0 0.00 0.00 0.00 67 1014.0
20260508024851 9 250 0.0 0.0 0.00 0.00 0.00 67 1014.1
20260508023852 9 250 0.0 0.0 0.00 0.00 0.00 65 1014.1
20260508022851 9 250 0.0 1.6 0.00 0.00 0.00 66 1014.0
20260508021853 10 250 0.0 0.0 0.00 0.00 0.00 67 1014.1
20260508020857 10 250 0.0 0.0 0.00 0.00 0.00 66 1014.0
20260508015852 10 250 0.0 0.0 0.00 0.00 0.00 66 1014.0
20260508014852 10 250 0.0 0.0 0.00 0.00 0.00 65 1014.0
20260508013854 10 250 0.0 0.0 0.00 0.00 0.00 62 1014.0